CAPE
1 1 2 2 1 1 1 0 0 0 0 0 0 0 0 0 0 0 0 0 3 1049 902 93 227 444 590 407 596 400 510 388 328 294 605 432 180 323 217 262 413 388 57 35 73
1 0 0 1 2 1 1 1 0 0 0 0 0 0 0 0 0 0 0 13 707 1278 0 46 27 376 328 349 501 646 390 371 409 328 385 428 250 303 238 301 452 350 121 25 32
0 0 0 0 0 0 0 2 1 0 0 0 0 0 0 0 0 0 752 0 1160 327 0 0 9 260 267 308 525 581 540 393 427 331 304 359 344 171 174 89 247 246 243 59 28
0 0 1 0 0 0 0 1 1 0 0 0 0 0 0 0 0 0 817 685 1089 25 0 0 2 176 236 352 460 621 553 486 518 395 351 348 335 159 154 51 98 177 240 227 230
0 0 0 2 0 0 1 0 0 0 0 0 0 0 0 0 0 0 2 911 0 0 0 0 35 133 212 323 433 581 594 466 472 433 412 354 317 112 222 53 133 233 258 352 332
0 0 0 0 0 0 0 0 0 0 0 0 0 0 0 0 0 0 0 0 0 0 0 0 23 57 110 115 346 473 571 545 466 522 476 337 326 172 286 161 206 291 329 420 429
0 0 0 0 0 0 0 0 0 0 0 0 0 0 0 0 0 0 0 0 0 0 0 0 5 93 93 259 260 299 408 514 573 494 290 317 306 251 258 288 179 217 330 380 471
0 0 0 0 0 0 0 0 0 0 0 0 0 0 0 0 0 0 0 0 0 0 0 0 0 56 233 243 208 159 131 386 560 385 270 332 543 354 291 260 267 106 223 337 493
0 0 0 0 0 0 0 0 0 0 0 0 0 0 0 0 0 0 0 0 0 0 0 0 15 120 263 347 312 194 286 285 331 474 427 415 485 450 356 419 323 251 284 321 596
0 0 0 0 0 0 0 0 0 0 0 0 0 0 0 0 0 0 0 0 0 0 0 0 2 98 165 237 303 196 240 298 287 447 365 483 452 565 407 488 520 488 455 525 498
0 0 0 0 0 0 0 0 0 0 0 0 0 0 0 0 0 0 0 0 0 0 0 0 21 144 15 45 119 149 244 237 322 378 407 424 375 522 524 445 543 607 612 739 746
0 0 0 0 0 0 0 0 0 0 0 0 0 0 0 0 0 0 0 0 0 0 0 0 14 0 0 0 49 108 172 329 421 372 496 503 472 573 648 515 520 580 582 625 621
0 0 0 0 0 0 0 0 0 0 0 0 0 0 0 0 0 0 0 0 0 0 0 10 4 0 0 1 2 93 208 254 317 356 490 293 658 609 595 621 604 562 513 543 570
0 0 0 0 0 0 0 0 0 0 0 0 0 0 0 0 0 0 0 0 0 0 0 2 0 0 0 0 0 122 79 226 267 237 216 246 203 405 738 738 750 752 718 651 598
0 0 0 0 0 0 0 0 0 0 0 0 0 0 0 0 0 0 0 0 0 0 0 0 0 0 0 0 0 13 158 267 289 221 398 255 72 333 569 813 835 862 778 700 713
0 0 0 0 0 0 0 0 0 0 0 0 0 0 0 0 0 0 0 0 0 0 0 0 0 0 0 0 0 0 162 289 240 254 78 221 349 61 268 278 517 716 823 805 734
0 0 0 0 0 0 0 0 0 0 0 0 0 0 0 0 0 0 0 0 0 0 0 0 0 0 0 0 11 34 222 273 210 139 49 183 346 171 100 268 336 419 685 762 807
0 0 0 0 0 0 0 0 0 0 0 0 0 0 0 0 0 0 0 0 0 0 0 0 0 0 0 0 3 153 252 264 125 139 58 268 144 198 295 276 298 343 497 620 666
0 0 0 0 0 0 0 0 0 0 0 0 0 0 0 0 0 0 0 0 0 0 0 0 0 0 0 4 11 291 261 125 169 31 43 8 23 119 162 220 254 341 415 505 654
0 0 0 0 0 0 0 0 0 0 0 0 0 0 0 0 0 0 0 0 0 0 0 0 0 0 0 41 14 281 241 272 154 49 0 0 0 67 103 317 451 472 564 704 916
0 0 0 0 0 0 0 0 0 0 0 0 0 0 0 0 0 0 0 0 0 0 0 0 9 0 0 90 227 148 167 163 110 87 7 0 1 11 277 236 293 422 571 700 901
0 0 0 0 0 0 0 0 0 0 0 0 0 0 0 0 0 0 0 0 0 0 0 0 1 0 0 0 0 2 57 132 363 283 4 0 1 21 217 110 117 218 518 461 1205
0 0 0 0 0 0 0 0 0 0 0 0 0 0 0 0 0 0 0 0 0 0 0 0 0 3 0 0 0 0 47 119 130 1 7 11 0 50 472 451 304 273 435 571 1028
0 0 0 0 0 0 0 0 0 0 0 0 0 0 0 0 0 0 0 0 0 0 0 0 0 0 27 8 2 0 0 13 40 69 18 0 0 0 627 670 821 742 536 565 1023
0 0 0 0 0 0 0 0 0 0 0 0 0 0 0 0 0 0 0 0 0 0 0 0 0 0 3 0 0 0 0 0 0 0 0 1 0 283 1189 1123 1152 992 966 897 1068
0 0 0 0 0 0 0 0 0 0 0 0 0 0 0 0 0 0 0 0 0 0 0 0 0 0 0 0 0 0 0 0 0 0 0 0 96 1204 1647 1283 1303 1459 1753 2006 1843
0 0 0 0 0 0 0 0 0 0 0 0 0 0 0 0 0 0 0 0 0 0 0 0 0 0 0 0 0 0 0 0 0 0 0 0 605 1490 1796 1985 1989 2042 2078 1935 1847
CIN
0 0 0 0 0 0 0 0 0 0 0 0 0 0 0 0 0 0 0 0 -73 -654 -508 -212 -165 -97 -86 -40 -43 -34 0 0 0 0 -5 -5 -3 -10 -14 -12 -3 -16 -36 -78 -127
0 0 0 0 0 0 0 0 0 0 0 0 0 0 0 0 0 0 0 -62 -719 -598 -1 -82 -38 -68 -17 -21 -19 -2 0 -3 -9 -3 -3 -3 0 -7 -5 -6 -15 -30 -55 -120 -151
0 0 0 0 0 0 0 0 0 0 0 0 0 0 0 0 0 0 -622 0 -650 -674 0 0 -31 -40 -15 -13 -20 -18 -3 -15 -18 -13 -13 -14 -1 -12 -1 -9 -12 -25 -44 -93 -126
0 0 0 0 0 0 0 0 0 0 0 0 0 0 0 0 0 0 -639 -692 -654 -23 0 0 -24 -10 -7 -6 -19 -8 -29 -19 -27 -30 -20 -22 -23 -13 -8 -13 -27 -26 -39 -56 -62
0 0 0 0 0 0 0 0 0 0 0 0 0 0 0 0 0 0 -482 -648 0 0 0 0 -14 -10 -4 -12 -19 -12 -24 -36 -29 -31 -19 -29 -31 -40 -21 -37 -36 -25 -35 -35 -33
0 0 0 0 0 0 0 0 0 0 0 0 0 0 0 0 0 0 0 0 0 0 0 0 -23 -25 -24 -43 -24 -32 -35 -43 -47 -30 -34 -25 -33 -43 -46 -41 -35 -26 -10 -11 -13
0 0 0 0 0 0 0 0 0 0 0 0 0 0 0 0 0 0 0 0 0 0 0 0 -31 -24 -37 -33 -68 -49 -53 -55 -52 -53 -47 -34 -35 -19 -49 -54 -41 -24 -8 -5 -6
0 0 0 0 0 0 0 0 0 0 0 0 0 0 0 0 0 0 0 0 0 0 0 0 0 -43 -24 -80 -73 -40 -42 -24 -53 -63 -80 -36 -5 -36 -48 -50 -42 -44 -19 -8 -9
0 0 0 0 0 0 0 0 0 0 0 0 0 0 0 0 0 0 0 0 0 0 0 0 -45 -25 -45 -4 -2 -14 -2 -14 -49 -52 -60 -35 -7 -39 -51 -43 -29 -35 -24 -7 -6
0 0 0 0 0 0 0 0 0 0 0 0 0 0 0 0 0 0 0 0 0 0 0 0 -10 -1 -5 0 0 0 -1 -12 -12 -49 -52 -35 -16 -37 -46 -33 -22 -15 -13 -9 -3
0 0 0 0 0 0 0 0 0 0 0 0 0 0 0 0 0 0 0 0 0 0 0 0 0 0 -14 -15 -15 -12 -3 -3 -26 -53 -30 -14 -15 -27 -41 -37 -19 -23 -15 -20 -13
0 0 0 0 0 0 0 0 0 0 0 0 0 0 0 0 0 0 0 0 0 0 0 0 0 0 0 0 -26 -11 0 -4 -28 -40 -27 -18 -13 -27 -39 -41 -28 -23 -22 -33 -27
0 0 0 0 0 0 0 0 0 0 0 0 0 0 0 0 0 0 0 0 0 0 0 0 -1 0 0 -8 -2 0 0 -7 -11 -34 -40 -22 -30 -74 -74 -66 -55 -38 -31 -28 -32
0 0 0 0 0 0 0 0 0 0 0 0 0 0 0 0 0 0 0 0 0 0 0 0 0 0 0 0 0 -1 -33 -30 -16 -1 -2 -31 -4 -56 -52 -70 -74 -60 -42 -30 -23
0 0 0 0 0 0 0 0 0 0 0 0 0 0 0 0 0 0 0 0 0 0 0 0 0 0 0 0 0 -50 -33 -22 -20 -10 -3 -23 -11 -33 -71 -40 -37 -40 -40 -25 -27
0 0 0 0 0 0 0 0 0 0 0 0 0 0 0 0 0 0 0 0 0 0 0 0 0 0 0 0 0 0 -29 -18 -15 -10 -6 -26 -4 -20 -9 -26 -26 -17 -29 -39 -24
0 0 0 0 0 0 0 0 0 0 0 0 0 0 0 0 0 0 0 0 0 0 0 0 0 0 0 0 -52 -72 0 0 0 0 -12 -32 -3 -6 -38 -33 -28 -21 -24 -25 -35
0 0 0 0 0 0 0 0 0 0 0 0 0 0 0 0 0 0 0 0 0 0 0 0 0 0 0 0 -2 -3 0 0 0 0 -15 -26 -3 -3 -29 -32 -53 -51 -32 -37 -27
0 0 0 0 0 0 0 0 0 0 0 0 0 0 0 0 0 0 0 0 0 0 0 0 0 0 0 -33 -20 -6 0 -10 0 -48 -26 -82 -68 -35 -33 -27 -12 -20 -31 -24 -24
0 0 0 0 0 0 0 0 0 0 0 0 0 0 0 0 0 0 0 0 0 0 0 0 0 0 0 -59 -74 -7 -16 -3 -2 -19 0 0 0 -27 -29 -5 -8 -17 -9 -13 -19
0 0 0 0 0 0 0 0 0 0 0 0 0 0 0 0 0 0 0 0 0 0 0 0 -1 0 0 -35 -1 -16 -9 -16 -8 -27 -71 0 -14 -26 -15 -14 -9 -5 -8 -12 -16
0 0 0 0 0 0 0 0 0 0 0 0 0 0 0 0 0 0 0 0 0 0 0 0 0 0 0 0 0 -120 -21 -10 0 -5 -113 0 -4 -95 -22 -37 -44 -29 -27 -51 -46
0 0 0 0 0 0 0 0 0 0 0 0 0 0 0 0 0 0 0 0 0 0 0 0 0 0 0 0 0 0 -60 -16 -14 -3 -69 -23 0 -65 -14 -23 -74 -51 -66 -95 -64
0 0 0 0 0 0 0 0 0 0 0 0 0 0 0 0 0 0 0 0 0 0 0 0 0 0 0 -1 -1 0 -10 -55 -72 -19 -39 0 0 0 -14 -34 -52 -61 -85 -94 -106
0 0 0 0 0 0 0 0 0 0 0 0 0 0 0 0 0 0 0 0 0 0 0 0 0 0 0 0 0 0 0 0 0 0 0 -1 0 -5 -35 -64 -100 -80 -103 -105 -94
0 0 0 0 0 0 0 0 0 0 0 0 0 0 0 0 0 0 0 0 0 0 0 0 0 0 0 0 0 0 0 0 0 0 0 0 -1 -54 -76 -94 -82 -93 -95 -103 -115
0 0 0 0 0 0 0 0 0 0 0 0 0 0 0 0 0 0 0 0 0 0 0 0 0 0 0 0 0 0 0 0 0 0 0 0 -6 -51 -72 -73 -75 -78 -109 -143 -180
Wind_Speed
nan nan nan nan nan nan nan nan nan nan nan nan nan nan nan nan nan nan nan nan nan 16 17 nan 17 14 16 13 11 13 19 13 16 19 24 26 23 14 12 5 14 13 nan nan nan
nan nan nan nan nan nan nan nan nan nan nan nan nan nan nan nan nan nan nan nan 9 16 nan nan nan 16 14 11 11 14 12 11 17 18 26 32 26 20 19 9 4 3 7 nan nan
nan nan nan nan nan nan nan nan nan nan nan nan nan nan nan nan nan nan 11 nan 11 20 nan nan nan 14 5 5 4 7 5 11 14 18 23 29 29 24 20 nan 8 7 10 nan nan
nan nan nan nan nan nan nan nan nan nan nan nan nan nan nan nan nan nan 11 5 9 nan nan nan nan 11 8 2 4 8 2 7 12 16 19 25 27 28 21 nan nan 6 9 11 10
nan nan nan nan nan nan nan nan nan nan nan nan nan nan nan nan nan nan nan 7 nan nan nan nan nan 9 2 1 3 7 1 5 12 15 15 21 24 24 20 nan 13 11 7 8 8
nan nan nan nan nan nan nan nan nan nan nan nan nan nan nan nan nan nan nan nan nan nan nan nan nan nan 7 4 4 1 3 8 10 12 13 18 20 25 21 25 15 15 13 6 5
nan nan nan nan nan nan nan nan nan nan nan nan nan nan nan nan nan nan nan nan nan nan nan nan nan nan nan 5 5 2 5 10 11 11 10 15 19 18 26 28 24 16 14 9 5
nan nan nan nan nan nan nan nan nan nan nan nan nan nan nan nan nan nan nan nan nan nan nan nan nan nan 16 9 14 15 15 13 11 16 13 16 14 17 27 28 27 24 15 13 12
nan nan nan nan nan nan nan nan nan nan nan nan nan nan nan nan nan nan nan nan nan nan nan nan nan 14 14 20 13 12 5 6 12 15 12 17 9 21 25 24 23 23 19 16 13
nan nan nan nan nan nan nan nan nan nan nan nan nan nan nan nan nan nan nan nan nan nan nan nan nan nan 10 15 12 9 7 7 8 16 14 14 8 18 25 24 22 24 22 20 19
nan nan nan nan nan nan nan nan nan nan nan nan nan nan nan nan nan nan nan nan nan nan nan nan nan 6 nan nan 7 6 10 8 12 15 13 6 7 14 24 24 21 21 22 23 23
nan nan nan nan nan nan nan nan nan nan nan nan nan nan nan nan nan nan nan nan nan nan nan nan nan nan nan nan nan 10 8 3 14 16 17 5 12 13 26 25 24 23 24 26 25
nan nan nan nan nan nan nan nan nan nan nan nan nan nan nan nan nan nan nan nan nan nan nan nan nan nan nan nan nan nan 13 9 6 15 19 21 12 12 21 19 20 22 23 26 25
nan nan nan nan nan nan nan nan nan nan nan nan nan nan nan nan nan nan nan nan nan nan nan nan nan nan nan nan nan 10 nan 10 11 22 7 23 7 8 18 23 24 24 24 25 25
nan nan nan nan nan nan nan nan nan nan nan nan nan nan nan nan nan nan nan nan nan nan nan nan nan nan nan nan nan nan 9 11 14 14 20 6 nan 8 21 25 26 26 24 22 20
nan nan nan nan nan nan nan nan nan nan nan nan nan nan nan nan nan nan nan nan nan nan nan nan nan nan nan nan nan nan 11 13 17 20 nan 7 21 nan 12 12 19 25 22 23 21
nan nan nan nan nan nan nan nan nan nan nan nan nan nan nan nan nan nan nan nan nan nan nan nan nan nan nan nan nan nan 23 4 5 3 nan 3 14 8 12 15 10 16 17 23 25
nan nan nan nan nan nan nan nan nan nan nan nan nan nan nan nan nan nan nan nan nan nan nan nan nan nan nan nan nan 9 20 8 3 10 nan 7 5 5 6 11 9 11 10 9 17
nan nan nan nan nan nan nan nan nan nan nan nan nan nan nan nan nan nan nan nan nan nan nan nan nan nan nan nan nan 4 12 16 9 nan nan nan nan 4 8 12 11 8 9 11 9
nan nan nan nan nan nan nan nan nan nan nan nan nan nan nan nan nan nan nan nan nan nan nan nan nan nan nan nan nan 16 10 12 6 nan nan nan nan nan 4 4 4 6 7 5 4
nan nan nan nan nan nan nan nan nan nan nan nan nan nan nan nan nan nan nan nan nan nan nan nan nan nan nan nan 7 2 6 7 7 nan nan nan nan nan 6 4 3 4 3 3 6
nan nan nan nan nan nan nan nan nan nan nan nan nan nan nan nan nan nan nan nan nan nan nan nan nan nan nan nan nan nan nan 3 12 19 nan nan nan nan 5 2 3 5 6 3 2
nan nan nan nan nan nan nan nan nan nan nan nan nan nan nan nan nan nan nan nan nan nan nan nan nan nan nan nan nan nan nan 7 10 nan nan nan nan nan 2 4 9 7 9 14 17
nan nan nan nan nan nan nan nan nan nan nan nan nan nan nan nan nan nan nan nan nan nan nan nan nan nan nan nan nan nan nan nan nan nan nan nan nan nan 2 4 6 9 10 14 16
nan nan nan nan nan nan nan nan nan nan nan nan nan nan nan nan nan nan nan nan nan nan nan nan nan nan nan nan nan nan nan nan nan nan nan nan nan 9 4 5 8 12 14 12 11
nan nan nan nan nan nan nan nan nan nan nan nan nan nan nan nan nan nan nan nan nan nan nan nan nan nan nan nan nan nan nan nan nan nan nan nan nan 9 12 14 17 20 21 19 18
nan nan nan nan nan nan nan nan nan nan nan nan nan nan nan nan nan nan nan nan nan nan nan nan nan nan nan nan nan nan nan nan nan nan nan nan 23 20 22 22 24 27 26 22 22
Wind_Direction
nan nan nan nan nan nan nan nan nan nan nan nan nan nan nan nan nan nan nan nan nan 14 57 nan 52 53 52 55 44 49 47 27 36 53 27 29 33 60 72 69 158 139 nan nan nan
nan nan nan nan nan nan nan nan nan nan nan nan nan nan nan nan nan nan nan nan 13 36 nan nan nan 40 55 47 48 72 66 55 55 40 26 33 39 42 43 68 119 225 286 nan nan
nan nan nan nan nan nan nan nan nan nan nan nan nan nan nan nan nan nan 186 nan 37 61 nan nan nan 50 57 55 16 47 76 58 47 39 28 33 38 46 37 nan 42 337 330 nan nan
nan nan nan nan nan nan nan nan nan nan nan nan nan nan nan nan nan nan 149 345 37 nan nan nan nan 80 92 153 330 4 62 45 22 22 28 30 33 40 49 nan nan 352 337 360 35
nan nan nan nan nan nan nan nan nan nan nan nan nan nan nan nan nan nan nan 348 nan nan nan nan nan 92 92 274 244 335 325 359 5 13 15 12 27 28 42 nan 23 5 360 1 14
nan nan nan nan nan nan nan nan nan nan nan nan nan nan nan nan nan nan nan nan nan nan nan nan nan nan 41 22 133 191 326 341 358 345 4 19 10 27 27 16 14 21 19 354 357
nan nan nan nan nan nan nan nan nan nan nan nan nan nan nan nan nan nan nan nan nan nan nan nan nan nan nan 68 101 90 11 350 10 18 20 16 16 26 14 20 19 27 38 22 353
nan nan nan nan nan nan nan nan nan nan nan nan nan nan nan nan nan nan nan nan nan nan nan nan nan nan 106 72 57 100 84 57 18 26 23 47 360 357 8 25 24 25 24 33 31
nan nan nan nan nan nan nan nan nan nan nan nan nan nan nan nan nan nan nan nan nan nan nan nan nan 105 85 77 62 80 150 71 36 37 11 38 355 356 7 24 30 33 34 35 35
nan nan nan nan nan nan nan nan nan nan nan nan nan nan nan nan nan nan nan nan nan nan nan nan nan nan 88 111 180 151 110 47 40 21 33 27 4 346 5 15 18 26 33 45 38
nan nan nan nan nan nan nan nan nan nan nan nan nan nan nan nan nan nan nan nan nan nan nan nan nan 150 nan nan 154 119 100 70 25 9 44 13 8 356 11 16 18 25 24 34 43
nan nan nan nan nan nan nan nan nan nan nan nan nan nan nan nan nan nan nan nan nan nan nan nan nan nan nan nan nan 126 92 110 17 25 53 17 71 47 28 24 23 28 33 35 33
nan nan nan nan nan nan nan nan nan nan nan nan nan nan nan nan nan nan nan nan nan nan nan nan nan nan nan nan nan nan 143 113 88 56 54 87 48 43 30 39 35 38 40 41 41
nan nan nan nan nan nan nan nan nan nan nan nan nan nan nan nan nan nan nan nan nan nan nan nan nan nan nan nan nan 237 nan 94 86 106 96 109 341 26 30 39 46 53 53 58 52
nan nan nan nan nan nan nan nan nan nan nan nan nan nan nan nan nan nan nan nan nan nan nan nan nan nan nan nan nan nan 120 109 106 108 57 108 nan 68 51 52 48 48 49 45 51
nan nan nan nan nan nan nan nan nan nan nan nan nan nan nan nan nan nan nan nan nan nan nan nan nan nan nan nan nan nan 91 75 76 80 nan 147 111 nan 39 27 33 46 53 53 50
nan nan nan nan nan nan nan nan nan nan nan nan nan nan nan nan nan nan nan nan nan nan nan nan nan nan nan nan nan nan 71 53 91 354 nan 95 86 205 13 23 33 24 52 54 48
nan nan nan nan nan nan nan nan nan nan nan nan nan nan nan nan nan nan nan nan nan nan nan nan nan nan nan nan nan 102 142 166 80 174 nan 75 135 272 338 15 25 50 36 45 41
nan nan nan nan nan nan nan nan nan nan nan nan nan nan nan nan nan nan nan nan nan nan nan nan nan nan nan nan nan 322 75 191 70 nan nan nan nan 357 57 54 48 36 20 18 9
nan nan nan nan nan nan nan nan nan nan nan nan nan nan nan nan nan nan nan nan nan nan nan nan nan nan nan nan nan 132 204 45 88 nan nan nan nan nan 263 313 328 0 7 357 349
nan nan nan nan nan nan nan nan nan nan nan nan nan nan nan nan nan nan nan nan nan nan nan nan nan nan nan nan 315 335 68 125 172 nan nan nan nan nan 220 211 184 327 354 253 297
nan nan nan nan nan nan nan nan nan nan nan nan nan nan nan nan nan nan nan nan nan nan nan nan nan nan nan nan nan nan nan 31 93 320 nan nan nan nan 196 165 102 25 7 324 350
nan nan nan nan nan nan nan nan nan nan nan nan nan nan nan nan nan nan nan nan nan nan nan nan nan nan nan nan nan nan nan 111 175 nan nan nan nan nan 88 11 33 22 10 8 3
nan nan nan nan nan nan nan nan nan nan nan nan nan nan nan nan nan nan nan nan nan nan nan nan nan nan nan nan nan nan nan nan nan nan nan nan nan nan 314 6 0 7 353 354 358
nan nan nan nan nan nan nan nan nan nan nan nan nan nan nan nan nan nan nan nan nan nan nan nan nan nan nan nan nan nan nan nan nan nan nan nan nan 264 264 313 321 326 323 313 321
nan nan nan nan nan nan nan nan nan nan nan nan nan nan nan nan nan nan nan nan nan nan nan nan nan nan nan nan nan nan nan nan nan nan nan nan nan 277 288 303 306 306 300 279 282
nan nan nan nan nan nan nan nan nan nan nan nan nan nan nan nan nan nan nan nan nan nan nan nan nan nan nan nan nan nan nan nan nan nan nan nan 266 291 292 293 290 292 286 276 272